Temp
21 19 19 20 20 22 21 23 23 22 23 22 21 20 20 18 17 17 16 16 18 17 18 17 17 17 17 17 18 18 18 17 17 16 16 16 16 15 15 15 15 15 15 15
19 19 20 21 21 21 23 22 22 22 22 23 20 20 19 18 19 18 18 17 18 18 18 18 17 17 17 18 18 18 18 17 17 17 17 17 16 15 15 15 14 15 15 14
19 22 22 24 23 22 22 23 22 22 22 20 19 19 19 20 20 19 18 19 19 19 18 18 17 17 17 16 17 18 18 17 17 17 17 16 15 14 14 14 14 14 14 14
20 22 23 24 23 23 21 22 22 22 21 20 21 18 18 19 19 19 20 17 19 18 18 18 17 16 16 16 17 18 18 17 17 17 17 16 15 13 13 13 13 13 13 12
21 23 22 23 23 23 22 22 22 23 20 20 21 19 18 18 20 20 20 20 18 17 18 18 17 17 17 16 16 17 17 17 17 17 17 16 14 14 14 13 13 12 12 11
22 23 22 22 23 23 23 23 19 18 18 17 20 19 18 17 21 21 22 20 20 15 16 17 18 17 17 16 16 16 16 16 17 17 17 16 15 14 14 13 13 12 11 11
22 23 22 23 23 23 22 19 18 19 16 16 19 19 19 21 20 21 20 20 18 17 17 15 16 16 16 16 16 16 16 16 17 16 16 16 15 14 14 13 12 11 10 9
20 20 22 23 22 21 22 20 16 19 16 19 18 18 20 21 20 20 19 18 17 16 17 16 16 16 16 16 15 16 16 16 16 16 16 16 15 14 13 13 12 11 10 9
18 20 21 21 21 22 22 20 19 15 14 15 17 19 20 21 21 18 18 18 16 15 15 16 16 16 16 16 15 16 16 15 16 15 14 14 14 14 13 13 11 11 10 9
19 21 20 20 21 22 22 20 19 15 18 18 18 19 19 21 22 19 17 17 17 15 15 15 16 16 16 16 15 15 16 16 17 16 15 14 13 13 13 12 11 11 10 8
18 19 19 21 21 21 20 20 18 17 14 16 15 17 17 20 23 22 20 16 16 15 15 15 16 16 15 15 15 15 15 15 15 14 14 14 13 13 12 11 11 9 9 8
18 17 15 20 20 21 21 20 18 14 18 12 11 16 19 19 20 19 19 19 15 15 15 16 16 14 14 14 14 14 14 14 14 14 13 13 12 12 11 11 10 9 9 8
18 17 14 18 20 20 21 20 18 16 12 15 13 16 19 18 19 19 19 19 17 15 15 14 13 13 14 14 13 13 13 12 11 11 11 11 11 11 11 10 10 9 9 8
17 16 17 18 18 18 20 20 19 18 13 14 13 18 20 20 19 19 19 18 17 16 15 14 13 13 14 14 13 13 12 11 10 9 10 11 11 11 11 10 10 9 9 8
19 19 18 18 20 20 21 21 18 18 18 16 18 16 19 20 19 17 17 20 18 16 15 14 13 12 14 14 14 13 12 11 11 10 10 10 11 11 10 10 9 9 8 7
17 16 18 18 18 18 20 19 19 19 20 18 18 18 16 17 17 15 16 16 15 15 15 17 15 14 14 14 14 14 12 11 11 11 10 10 10 9 9 9 8 7 6 6
16 13 13 17 15 16 14 16 18 19 19 19 18 18 17 16 16 14 13 14 14 14 14 13 13 14 15 15 15 14 13 12 12 11 9 9 9 8 8 7 5 5 5 5
13 12 10 11 12 13 17 18 18 18 17 17 16 15 16 14 14 13 14 13 13 13 11 10 9 11 13 14 13 12 11 10 9 8 8 7 7 6 5 5 5 5 4 4
14 10 10 13 12 15 18 18 17 17 18 17 15 14 14 14 14 14 14 11 10 9 8 7 8 8 10 11 11 11 9 8 7 6 5 4 4 4 4 4 4 4 4 3
12 10 12 9 13 13 15 17 18 16 14 17 15 14 14 15 10 12 11 9 7 6 5 5 6 6 7 7 8 7 4 4 3 3 3 4 4 3 3 3 4 3 3 3
10 8 11 7 10 11 14 17 17 16 15 15 14 14 13 14 11 9 7 6 5 4 4 5 4 3 4 5 5 3 3 3 3 4 4 4 4 3 3 4 3 2 2 3
13 10 8 7 9 14 15 17 16 14 14 14 13 13 12 9 8 7 6 5 5 4 4 4 3 3 3 3 4 3 3 4 4 4 4 4 3 3 2 2 2 3 2 2
15 12 12 12 12 14 15 17 16 13 14 13 13 12 11 9 8 6 5 4 4 3 3 3 3 3 4 4 4 3 3 3 3 3 3 3 2 2 2 2 2 2 2 1
15 13 13 13 15 15 15 13 13 14 13 12 12 11 10 7 6 5 4 4 3 3 3 3 3 3 2 3 3 3 3 3 3 3 2 2 2 2 2 1 1 1 1 1
13 13 13 12 13 13 12 11 9 8 8 8 8 8 7 6 5 4 3 3 2 2 3 3 3 2 2 3 2 2 2 2 2 2 2 2 1 1 1 1 1 1 1 1
12 13 11 11 13 13 11 9 9 8 7 7 6 5 5 5 4 3 2 2 2 2 3 3 2 2 2 1 1 1 1 1 1 0 0 0 -0 -0 -0 -0 0 1 1 1
Height
778 792 798 788 786 781 782 782 785 781 774 778 785 790 790 793 796 800 800 797 795 795 796 800 805 809 812 815 819 821 824 827 830 834 836 839 841 843 845 848 848 849 850 852
789 795 779 776 776 782 778 783 787 778 772 773 787 792 792 790 788 790 792 793 791 794 798 800 803 807 809 811 815 819 823 826 830 832 834 837 839 843 845 847 849 850 851 851
791 775 769 768 774 780 782 784 786 786 778 780 788 800 795 788 787 788 788 784 787 787 789 794 798 801 806 809 810 814 818 821 826 829 832 835 840 844 845 846 848 850 851 851
784 768 769 771 773 775 791 775 778 780 787 803 783 820 802 792 788 787 783 789 783 785 789 793 796 797 797 803 807 809 812 817 822 825 828 831 835 839 841 844 847 848 850 851
782 771 775 775 770 772 784 773 776 774 791 793 792 811 799 791 793 783 776 777 781 779 780 785 790 792 795 802 806 808 812 815 819 822 825 828 832 836 838 842 845 847 849 849
772 759 766 768 762 767 767 773 787 794 799 821 796 806 806 800 777 769 764 768 770 779 776 779 785 792 798 800 803 807 808 811 816 819 821 823 827 832 835 839 842 844 846 848
772 768 763 759 771 767 774 792 815 815 830 828 796 803 794 769 766 760 762 760 763 770 773 777 781 786 791 794 798 803 805 807 810 815 817 819 823 828 831 832 838 841 844 847
791 797 769 764 770 779 779 789 819 818 834 812 799 807 785 757 755 755 753 754 757 764 767 770 771 780 784 789 794 799 800 802 805 809 812 815 819 824 828 831 836 839 842 845
795 787 767 765 765 765 778 791 788 817 830 826 811 791 768 756 754 759 756 756 758 759 761 764 768 773 779 784 787 792 795 798 802 806 808 810 815 821 825 828 833 836 839 841
774 785 771 769 764 764 770 778 799 813 816 819 810 799 794 766 755 759 763 759 755 758 760 763 765 769 772 778 782 786 790 791 793 797 801 807 812 816 821 823 827 831 834 838
768 776 782 770 774 774 781 784 790 797 815 823 832 809 774 765 750 752 752 758 756 756 757 760 762 763 767 772 776 779 784 786 789 792 796 800 805 811 817 821 826 830 834 835
761 777 802 776 763 761 766 775 785 817 802 828 832 807 759 758 754 754 750 749 754 753 754 755 757 762 765 767 771 773 777 780 784 790 792 797 804 810 815 819 823 826 829 831
758 778 805 788 774 766 767 767 775 791 808 807 825 803 758 759 755 751 750 746 748 752 755 758 759 761 763 764 767 771 775 780 786 791 794 799 804 807 811 815 819 822 824 827
744 770 775 788 779 772 773 767 771 781 812 803 807 779 761 755 755 749 749 748 748 751 754 757 760 760 762 765 769 773 775 780 784 790 794 796 799 802 806 810 814 817 820 823
743 761 766 765 760 761 761 765 773 777 775 788 775 780 761 754 753 751 749 746 748 754 756 758 759 761 764 767 771 773 774 776 780 785 789 791 795 798 803 808 812 815 819 823
746 768 762 770 767 767 765 764 768 769 764 770 765 767 760 755 754 755 753 755 758 757 758 758 759 761 761 762 765 768 771 775 780 783 783 787 792 797 802 805 811 817 821 824
752 771 782 780 782 777 793 774 764 760 756 757 769 757 756 760 761 762 761 760 761 761 761 761 762 762 762 761 762 763 764 768 772 776 780 785 789 794 799 805 811 816 819 821
760 770 789 797 794 806 761 751 752 758 758 755 757 757 758 762 764 764 763 763 766 766 767 770 769 767 765 763 763 765 768 771 774 779 784 788 793 796 800 804 809 811 816 817
745 772 792 790 796 776 754 752 757 758 758 752 757 760 762 762 762 766 763 763 767 770 772 772 770 768 765 763 765 766 769 772 776 781 785 788 791 798 806 813 808 812 815 814
755 765 771 804 788 789 759 744 740 747 778 752 755 759 760 760 787 774 770 772 774 775 775 775 773 771 768 769 769 770 774 777 781 785 790 795 800 802 801 808 810 810 811 809
777 788 782 811 799 777 749 739 740 766 767 750 754 756 760 765 769 773 776 778 779 779 779 779 778 777 777 776 775 779 783 787 790 792 796 799 801 804 807 806 807 807 807 806
756 777 795 803 800 770 736 739 751 747 742 745 752 754 760 766 772 777 781 783 783 784 785 785 783 784 785 785 782 787 790 795 797 798 799 801 804 804 804 805 805 805 803 802
747 747 759 759 757 737 732 730 729 735 738 746 749 753 757 767 775 780 785 787 789 789 789 790 790 791 793 794 793 796 799 800 801 801 801 802 803 804 804 803 802 801 800 798
732 733 741 746 734 732 731 732 732 734 738 743 746 752 758 767 777 783 787 790 792 793 794 794 795 797 799 800 800 801 803 803 802 803 804 804 804 803 802 800 799 797 795 793
725 728 735 742 738 737 736 736 739 743 745 748 753 757 764 769 778 783 788 792 794 795 797 798 799 801 802 803 804 805 804 804 804 805 804 804 803 801 799 797 795 793 791 789
715 719 734 739 724 726 733 739 741 744 750 754 756 765 771 773 778 784 789 793 795 798 800 801 803 804 806 806 806 806 805 804 804 804 803 802 800 798 795 793 788 787 784 781
Wind_Speed
2 4 4 6 6 3 5 1 2 4 6 3 7 7 13 10 6 8 7 10 13 16 23 27 27 28 30 31 29 26 28 30 31 29 26 22 22 21 20 20 18 17 16 14
3 3 8 5 1 3 1 4 5 5 3 5 7 3 1 7 8 9 14 13 16 15 13 22 25 27 33 37 35 31 34 33 31 30 25 22 24 23 22 20 19 17 15 13
5 5 3 2 3 4 4 1 3 4 3 5 7 4 3 2 2 5 9 13 13 16 17 17 24 28 30 33 38 38 39 36 32 29 26 24 24 22 22 22 21 17 13 10
5 5 3 1 1 4 5 2 4 3 1 3 3 3 6 6 10 6 11 9 14 14 13 13 21 26 31 36 40 44 42 39 35 31 29 31 34 27 26 25 19 16 11 8
8 3 4 4 7 4 8 5 4 1 3 5 1 4 6 6 11 15 15 15 13 11 14 17 24 30 30 32 34 39 39 40 37 33 32 35 32 29 26 23 20 16 12 8
6 3 6 8 3 5 2 2 7 5 3 2 3 5 4 6 19 21 17 15 16 11 12 13 23 24 25 30 33 36 37 40 38 35 35 37 35 33 28 26 23 18 14 9
2 2 3 4 1 1 3 5 2 2 3 4 2 2 8 8 10 13 14 15 12 13 13 11 15 22 25 31 36 38 38 37 41 37 38 38 38 35 33 31 25 20 16 12
5 4 3 2 3 5 3 6 5 3 3 3 3 4 6 5 7 8 9 9 9 9 13 15 19 26 27 30 33 33 36 35 39 39 40 38 37 35 35 29 23 19 15 10
5 5 0 2 4 5 1 2 3 6 3 3 3 6 10 7 2 3 5 6 8 9 11 15 18 27 28 28 35 40 39 36 35 35 35 35 35 35 33 27 21 18 14 13
7 1 1 4 2 2 4 5 2 3 2 3 4 4 5 7 6 6 5 8 7 5 7 9 14 23 28 31 34 40 42 43 43 38 35 31 32 34 31 27 24 22 21 17
6 4 4 2 5 8 0 2 4 4 4 4 1 5 7 7 4 7 6 8 8 8 9 11 15 23 27 29 35 39 40 38 38 37 37 37 36 34 29 27 25 24 18 12
7 6 4 8 3 2 4 5 5 4 4 2 3 6 5 8 5 6 9 5 8 8 10 12 15 20 25 29 33 38 38 40 41 40 39 38 35 33 31 29 26 23 17 14
8 1 2 7 5 1 2 4 5 4 3 6 5 6 1 5 6 7 7 8 4 8 6 3 6 12 19 24 27 30 33 33 32 37 36 34 35 36 34 30 27 22 19 15
10 4 8 9 8 4 3 5 5 5 3 4 6 6 6 7 8 6 7 6 5 5 6 5 4 6 15 19 18 20 24 27 29 30 34 36 39 38 35 30 29 25 21 17
4 6 5 3 4 4 4 5 6 7 6 6 8 8 8 4 7 7 7 0 6 5 6 6 5 5 10 13 15 22 27 29 32 35 35 39 39 35 32 30 27 25 19 14
2 3 4 3 2 3 4 7 7 5 3 7 4 6 5 3 3 7 6 8 8 7 6 3 5 7 13 18 23 23 27 30 29 33 36 35 34 30 29 27 22 15 11 6
5 7 4 4 2 2 6 8 8 6 5 6 6 8 5 4 5 5 7 8 7 7 8 9 8 8 9 15 21 28 31 31 35 37 31 27 28 25 23 21 19 15 9 2
6 5 3 3 3 2 7 2 4 5 3 4 4 6 4 6 5 6 4 8 8 6 7 6 8 10 8 7 10 14 16 21 19 15 17 18 20 25 25 22 15 9 4 11
3 5 3 4 4 4 5 4 7 6 4 2 8 8 6 5 5 7 6 8 7 6 7 10 13 14 15 10 1 8 11 15 18 20 23 26 31 27 18 10 7 9 13 12
6 6 4 3 4 8 8 4 3 6 2 4 5 8 8 2 3 3 4 5 8 13 13 14 15 17 20 16 14 20 22 24 24 26 27 28 21 13 9 4 11 11 11 13
3 3 5 3 3 7 7 4 5 5 7 8 7 7 6 4 3 5 7 9 11 12 15 16 20 21 19 17 21 25 25 24 26 28 22 14 9 6 8 12 10 9 13 15
7 7 4 3 2 6 6 5 8 6 2 7 6 6 6 9 8 8 8 7 9 11 14 17 20 22 19 18 25 25 25 21 18 13 10 7 7 9 8 6 9 14 15 19
2 6 6 8 6 4 4 3 3 6 9 6 8 6 12 12 6 8 7 7 9 12 15 18 21 24 22 20 23 21 13 9 7 5 4 2 3 5 8 12 16 17 18 19
3 4 4 4 2 3 2 2 4 3 4 5 4 9 9 13 11 11 9 7 10 13 16 19 22 21 19 18 18 15 11 9 9 8 7 8 9 10 12 13 15 17 20 22
5 8 6 1 1 3 4 3 6 9 9 12 11 8 12 15 11 11 10 8 11 15 17 19 19 18 16 14 14 12 11 10 10 10 11 12 13 14 17 18 19 21 23 24
5 7 5 6 10 5 4 6 7 11 9 9 14 13 11 14 13 14 8 13 15 17 17 17 15 15 14 15 16 15 14 12 12 13 15 16 17 18 20 23 27 25 27 28
Wind_Direction
351 77 227 225 204 177 264 100 155 191 193 114 212 151 164 181 173 182 183 185 186 189 198 197 200 202 200 197 193 193 192 181 175 173 172 173 171 165 162 166 167 168 169 170
14 229 227 250 181 200 15 344 350 308 223 147 175 153 216 183 186 191 190 194 191 192 187 192 192 190 195 195 193 190 187 184 185 183 182 183 178 173 171 170 172 171 174 177
176 229 164 229 155 66 336 277 271 253 358 47 103 35 244 265 256 199 215 206 195 195 186 187 189 189 193 195 194 194 192 192 193 191 188 182 175 173 174 175 175 174 184 185
239 274 258 67 157 89 331 96 249 257 111 155 77 231 265 223 231 227 219 209 202 197 195 195 194 192 192 197 200 197 197 198 196 193 192 186 183 176 188 180 175 173 174 173
238 206 194 214 213 124 241 338 282 65 109 103 34 94 269 155 230 241 229 213 216 206 189 189 201 204 195 195 200 199 201 200 198 198 199 196 190 194 190 180 173 172 172 173
224 197 161 201 249 174 263 74 23 37 61 49 234 142 272 190 213 225 233 227 214 190 201 189 197 197 202 197 201 203 202 204 202 203 208 204 201 198 182 178 180 178 171 160
330 284 13 57 337 329 95 78 328 357 13 215 31 77 238 239 223 218 210 218 218 181 196 170 180 188 195 197 202 204 206 204 207 211 212 211 209 204 193 182 181 173 165 158
157 306 152 174 176 170 192 159 157 217 189 255 27 237 256 250 279 277 211 210 209 176 187 183 185 190 194 199 204 202 208 209 208 215 215 213 214 204 194 185 185 180 170 156
139 256 18 216 206 138 149 154 174 106 358 49 242 290 311 324 335 84 165 165 201 188 180 185 177 188 192 197 205 205 210 212 214 215 214 212 210 199 187 186 182 176 175 174
201 127 147 314 357 358 144 163 79 17 150 244 278 277 238 316 303 137 159 213 225 178 163 175 184 189 195 203 203 203 209 210 208 206 201 195 188 188 190 187 182 187 180 180
144 128 267 136 196 188 112 205 57 119 133 177 212 261 216 228 293 293 282 203 218 204 185 184 188 196 193 196 200 204 207 205 202 196 192 189 189 190 190 188 188 182 181 186
197 144 189 215 254 221 174 191 139 127 212 171 164 269 244 237 273 276 267 255 210 210 201 194 190 178 183 192 196 200 200 203 204 194 189 188 189 189 189 189 190 189 186 186
179 182 69 335 347 4 222 204 106 116 77 190 151 258 284 261 258 261 260 265 227 209 203 177 155 185 194 198 198 197 199 201 193 193 191 190 193 193 193 197 195 194 190 194
109 129 170 208 204 161 199 246 169 149 125 190 217 250 274 252 239 257 266 283 261 201 182 178 184 201 211 213 210 200 199 200 197 196 196 199 201 197 201 199 197 199 196 195
131 159 150 246 172 180 202 228 176 202 208 163 248 201 257 287 259 274 206 183 47 112 160 177 195 215 235 227 213 209 205 202 204 204 206 205 202 202 204 202 200 197 196 194
320 161 130 150 39 7 224 223 215 229 229 267 244 259 244 348 57 56 80 86 78 74 83 126 218 233 239 229 215 206 207 207 207 212 206 202 203 202 204 199 194 179 181 180
123 132 117 224 58 13 324 222 225 223 212 189 194 224 169 93 67 66 80 85 86 61 41 31 9 343 301 254 232 215 212 208 209 209 202 196 193 192 187 158 138 128 128 9
127 101 82 185 63 325 243 272 223 191 290 224 119 122 118 127 113 95 115 126 113 95 62 38 16 10 353 295 244 231 213 203 192 173 166 163 159 145 137 135 134 121 10 291
94 122 104 143 189 290 296 179 158 169 238 318 141 134 140 141 80 36 20 45 58 55 41 37 35 32 34 36 184 171 138 139 134 127 128 131 132 123 116 100 70 357 298 273
56 58 118 141 171 210 226 228 156 116 301 205 153 157 158 126 80 238 55 57 56 50 43 41 48 54 59 65 102 107 97 103 101 110 113 119 113 99 90 1 326 296 276 281
77 26 154 128 206 286 246 201 131 133 228 163 171 167 150 148 190 126 90 67 67 63 57 64 65 62 69 85 100 85 88 88 103 109 108 98 77 23 333 306 272 272 274 271
161 144 180 92 83 271 188 124 164 207 77 138 152 155 114 116 104 97 90 82 72 69 69 73 72 66 72 87 101 94 96 108 107 99 83 42 327 283 260 262 270 270 275 283
193 179 178 176 209 237 230 214 183 161 146 173 146 154 135 129 123 119 114 99 87 82 80 85 83 79 80 89 97 93 93 94 86 70 43 347 303 282 273 280 283 283 285 283
240 159 142 103 227 213 128 71 77 100 121 118 108 134 141 129 128 123 115 103 94 90 93 98 93 87 84 81 80 79 71 57 47 32 4 340 322 315 308 299 291 286 284 287
193 140 144 64 346 84 19 67 116 92 89 89 71 88 123 123 120 121 114 108 105 104 104 100 97 92 83 75 64 50 39 28 20 6 352 342 334 326 323 318 310 300 294 288
188 169 156 213 196 158 162 130 123 111 109 104 111 97 94 116 120 120 113 119 120 115 111 99 92 87 79 75 60 49 41 32 21 14 7 360 351 343 337 329 320 312 310 309